{"data":{"norad_id":63593,"intl_designator":"2025-076AA","name":"STARLINK-33723","alt_names":[],"object_type":"PAYLOAD","status":"ACTIVE","operator":null,"country":"US","launch_date":"2025-04-14","launch_site_code":"AFETR","launch_vehicle":null,"mission":null,"orbit_class":"UNKNOWN","rcs_meters":null,"size_class":null,"mass_kg":null,"dimensions":null,"purposes":["comms"],"wikipedia_slug":null,"has_3d_model":false,"image_url":null,"decayed_at":null,"tle_current":{"epoch":"2026-05-25T00:07:08.260608Z","epoch_age_seconds":70744,"freshness":"FRESH","line1":"1 63593U 25076AA  26145.00495672  .00011509  00000+0  42699-3 0  9995","line2":"2 63593  42.9970 250.5428 0000351  50.1162 309.9721 15.27586169 63504","mean_motion":15.27586169,"eccentricity":3.51e-5,"inclination_deg":42.997,"raan_deg":250.5428,"arg_perigee_deg":50.1162,"mean_anomaly_deg":309.9721,"bstar":0.00042699,"rev_number":6350,"period_min":94.26636802706,"perigee_km":482.78979691293,"apogee_km":483.27145088013,"semimajor_km":6861.1676238965,"source":"CELESTRAK","updated_at":"2026-05-25T13:38:20.050977Z"}}}